STARLINK-32922, 62926

Orbit data source: Space-Track

STARLINK-32922, 62926 is a payload satellite owned by SpaceX/Seattle (US) in LEO that was launched on Sat, 08 Feb 2025 UTC via an FALCON 9 launch vehicle from the Air Force Eastern Test Range (AFETR). Payload-class satellites include a variety of spacecraft equipped with specific instruments for various scientific and technological missions. These include communications satellites like Starlink; space stations such as the ISS; scientific satellites like the Hubble; Earth observation satellites from companies like Planet Labs, Umbra, and HawkEye 360; GPS; miniature CubeSats for education and research; and military/defense satellites.

Loading next visibility...
Identifier
62926, 2025-027V
Orbit
LEO
Country
Flag of USUS
Related business
Manufacturer
SpaceX/Seattle
Mission
Operational Commercial Communications
Bus & Motor
STARLINK V2M, Unknown motor
Mass
730 kg wet, ~700 kg dry
Launch date (UTC)
2025-02-08 (1 year ago)
Launch vehicle
FALCON 9
Launch site
Air Force Eastern Test Range (AFETR)
Object type
Payload
Rocket body
Debris
Shape & HBR
Box + 2 Pan, 17.7 m
Radar Cross Section
33.884 m², Large (>1 m²)

Expand to show TLE details & history
Last TLE update: 1 day ago

TLE from 1 day ago
0 STARLINK-32922
1 62926U 25027V   26174.89779619  .00007299  00000-0  27447-3 0  9991
2 62926  42.9963 249.2139 0001289 283.6807  76.3901 15.27583241 77787
Epoch: 2026-06-23T21:32Z
TLE epoch observation values (Epoch: 2026-06-23T21:32:49.590Z)
Latitude
-0.00003°
Longitude
13.94447°
Altitude
482.606 km
Speed
7.626 km/s
True Right ascension
16h 36m 51s
True Declination
0° 00' 00"
Sunlit
Object was in full shadow at epoch
Visualization orbit readout
Latitude
Unknown
Longitude
Unknown
Altitude
Unknown
Speed
Unknown
Apparent Right ascension
Unknown
Apparent Declination
Unknown
Sunlit
N/A
Visualization observer readout
Local Sidereal Time
13:29:56
Azimuth
Unknown
Elevation
Unknown
Doppler factor
Unknown
Orbital elements
Apogee altitude
485.87 km
Perigee altitude
484.101 km
Semi-major axis
6,863.122 km
Eccentricity
0.00013
Inclination
42.9963°
RAAN
249.2139°
Arg. of periapsis
283.6807°
True anomaly
76.40446°
Mean anomaly
76.3901°
Eccentric anomaly
76.39728°
Mean motion
3.81734 °/min
Orbital period
94.31 mins
BSTAR
0.00027447
Loading maneuver chart data...
Computing Atmospheric mass density...
Loading historical data...
Loading historical data...
Loading historical data...
Loading historical data...
Loading historical data...
Loading historical data...
Loading historical data...

Documentation

Showing up to 5 results
|